Flag for France Weather past 2 weeks in Bordeaux, France

Now
64 °F

Clear.


Feels Like: 64 °F
Forecast: 62 / 78 °F
Wind: 2 mph from Northwest

Location: Bordeaux / Merignac

Current Time: Aug 3, 2015 at 4:58:45 AM

Latest Report: Aug 3, 2015 at 4:30 AM


Visibility: 10 mi

Pressure: 29.98 "Hg

Humidity: 73%

Dew point: 55 °F

Location of BordeauxLocation

Historic Weather in Bordeaux — Graph

°F

Bordeaux temperature yesterday

Maximum temperature yesterday: 91 °F (at 6:30 PM)
Minimum temperature yesterday: 54 °F (at 6:00 AM)
Average temperature yesterday: 73 °F

Past Weeks' High & Low Weather Summary

 TemperatureHumidityPressure
High91 °F (Jul 21, 3:00 PM)100% (Jul 29, 2:30 AM)30.15 "Hg (Jul 29, 2:30 AM)
Low54 °F (Jul 26, 4:00 AM)14% (Jul 26, 2:30 PM)29.83 "Hg (Jul 24, 3:00 PM)
Average70 °F64%30.00 "Hg
* Reported Jul 19 3:00 AM — Aug 3 3:30 AM, Bordeaux, Weather by CustomWeather, © 2015

Note: Actual official high and low records may vary slightly from our data, if they occured in-between our weather recording intervals... More about our weather records

Advertising

Bordeaux weather history for previous 24 hours

 ConditionsComfort  
Time TempWeatherWind HumidityBarometerVisibility
3:30 AM
Mon, Aug 3
64 °FClear.1 mph73%29.98 "Hg10 mi
3:00 AM66 °FClear.3 mph68%29.98 "Hg10 mi
2:30 AM66 °FClear.2 mph73%29.95 "Hg10 mi
2:00 AM68 °FClear.No wind69%29.95 "Hg10 mi
1:30 AM68 °FClear.3 mph69%29.95 "Hg10 mi
1:00 AM70 °FClear.3 mph64%29.95 "Hg10 mi
12:30 AM70 °FClear.2 mph64%29.95 "Hg10 mi
12:00 AM72 °FClear.2 mph61%29.95 "Hg10 mi
11:30 PM
Sun, Aug 2
73 °FClear.2 mph57%29.95 "Hg10 mi
11:00 PM75 °FClear.3 mph54%29.92 "Hg10 mi
10:30 PM77 °FPassing clouds.3 mph47%29.92 "HgN/A
10:00 PM81 °FSunny.5 mph45%29.92 "Hg10 mi
9:30 PM82 °FPassing clouds.6 mph42%29.92 "HgN/A
9:00 PM86 °FSunny.8 mph35%29.92 "Hg10 mi
8:30 PM90 °FSunny.9 mph31%29.89 "Hg10 mi
8:00 PM90 °FSunny.7 mph31%29.89 "Hg10 mi
7:30 PM91 °FPassing clouds.6 mph30%29.89 "HgN/A
7:00 PM91 °FPassing clouds.6 mph30%29.89 "HgN/A
6:30 PM91 °FPassing clouds.7 mph30%29.89 "HgN/A
6:00 PM90 °FPassing clouds.7 mph31%29.89 "HgN/A
5:30 PM90 °FPassing clouds.7 mph29%29.89 "HgN/A
5:00 PM90 °FPassing clouds.10 mph31%29.89 "HgN/A
4:30 PM90 °FPassing clouds.7 mph31%29.92 "HgN/A
4:00 PM88 °FPassing clouds.9 mph31%29.92 "HgN/A
3:30 PM86 °FPassing clouds.9 mph33%29.92 "HgN/A
3:00 PM86 °FPassing clouds.8 mph33%29.95 "HgN/A
2:30 PM84 °FPassing clouds.8 mph35%29.95 "HgN/A
2:00 PM84 °FPassing clouds.12 mph33%29.95 "HgN/A
1:30 PM82 °FSunny.14 mph32%29.95 "Hg10 mi
1:00 PM81 °FPassing clouds.13 mph37%29.95 "HgN/A
12:30 PM81 °FPassing clouds.10 mph37%29.98 "HgN/A
12:00 PM79 °FPassing clouds.14 mph39%29.98 "HgN/A
11:30 AM77 °FSunny.14 mph44%29.98 "Hg10 mi
11:00 AM75 °FSunny.10 mph47%29.98 "Hg10 mi
10:30 AM73 °FPassing clouds.10 mph50%29.98 "HgN/A
10:00 AM72 °FSunny.8 mph53%30.01 "Hg10 mi
9:30 AM68 °FSunny.9 mph56%30.01 "Hg10 mi
9:00 AM64 °FSunny.8 mph64%30.01 "Hg10 mi
8:30 AM63 °FSunny.7 mph64%30.01 "Hg10 mi
8:00 AM61 °FSunny.6 mph68%30.01 "Hg10 mi
7:30 AM57 °FClear.5 mph82%30.01 "Hg10 mi
7:00 AM54 °FClear.2 mph88%30.01 "Hg10 mi
6:30 AM54 °FClear.2 mph94%30.01 "Hg10 mi
6:00 AM54 °FClear.No wind88%30.04 "Hg10 mi
5:30 AM55 °FClear.2 mph82%30.04 "Hg10 mi
5:00 AM55 °FClear.1 mph82%30.04 "Hg10 mi
4:30 AM55 °FClear.No wind82%30.04 "Hg10 mi
4:00 AM55 °FClear.No wind82%30.04 "Hg10 mi
Weather by CustomWeather, © 2015

See weather overviewHow to use our weather pages